Change the Weather History Date:

Thursday, November 22, 2012

  Actual Average Record
Temperature  
Mean Temperature 48 °F -  
Max Temperature 61 °F 59 °F 77 °F (1999)
Min Temperature 33 °F 35 °F 19 °F (2000)
Degree Days  
Heating Degree Days 16    
Moisture  
Dew Point 30 °F    
Average Humidity 61    
Maximum Humidity 92    
Minimum Humidity 24    
Precipitation  
Precipitation 0.00 in - - ()
Sea Level Pressure  
Sea Level Pressure 30.18 in    
Wind  
Wind Speed 7 mph (North)    
Max Wind Speed 13 mph    
Max Gust Speed -    
Visibility 10 miles    
Events      
Averages and records for this station are not official NWS values.
T = Trace of Precipitation, MM = Missing Value Source: NWS Daily Summary

Daily Weather History Graph

Daily Weather History Graph

Search for Another Location

Airport or City:

Trip Planner

Search our weather history database for the weather conditions in past years. The results will help you decide how hot, cold, wet, or windy it might be!

Date:

Astronomy

Nov. 22, 2012 Rise Set
Actual Time 6:55 AM EST 5:00 PM EST
Civil Twilight 6:27 AM EST 5:27 PM EST
Nautical Twilight 5:56 AM EST 5:59 PM EST
Astronomical Twilight 5:25 AM EST 6:29 PM EST
Moon 1:36 PM EST (11/22) 1:22 AM EST (11/22)
Length of Visible Light 11h 00m
Length of Day
10h 05m
Waxing Gibbous, 71% of the Moon is Illuminated
Nov 22
Waxing Gibbous
Nov 28
Full
Dec 6
Last Quarter
Dec 13
New
Dec 20
First Quarter

Hourly Weather History & Observations

Time (EST) Temp. Windchill Dew Point Humidity Pressure Visibility Wind Dir Wind Speed Gust Speed Precip Events Conditions
12:53 AM 37.9 °F 32.7 °F 30.9 °F 76% 30.17 in 10.0 mi NNE 6.9 mph - N/A   Clear
1:53 AM 39.9 °F 36.7 °F 30.9 °F 70% 30.17 in 10.0 mi North 4.6 mph - N/A   Clear
2:53 AM 36.0 °F 32.1 °F 28.9 °F 76% 30.17 in 10.0 mi NNW 4.6 mph - N/A   Clear
3:53 AM 37.9 °F 32.1 °F 30.9 °F 76% 30.16 in 10.0 mi North 8.1 mph - N/A   Clear
4:53 AM 37.9 °F 30.9 °F 30.9 °F 76% 30.16 in 10.0 mi North 10.4 mph - N/A   Clear
5:53 AM 37.9 °F 32.1 °F 30.9 °F 76% 30.18 in 10.0 mi North 8.1 mph - N/A   Clear
6:53 AM 37.9 °F 31.5 °F 30.9 °F 76% 30.20 in 10.0 mi North 9.2 mph - N/A   Clear
7:53 AM 41.0 °F 34.3 °F 32.0 °F 70% 30.22 in 10.0 mi North 11.5 mph - N/A   Clear
8:53 AM 46.9 °F - 35.1 °F 63% 30.23 in 10.0 mi NNE 9.2 mph - N/A   Clear
9:53 AM 50.0 °F - 35.1 °F 57% 30.24 in 10.0 mi North 11.5 mph - N/A   Clear
10:53 AM 55.0 °F - 34.0 °F 45% 30.23 in 10.0 mi North 9.2 mph - N/A   Clear
11:53 AM 57.9 °F - 28.0 °F 32% 30.20 in 10.0 mi North 12.7 mph - N/A   Clear
12:53 PM 60.1 °F - 27.0 °F 28% 30.17 in 10.0 mi North 10.4 mph - N/A   Clear
1:53 PM 61.0 °F - 26.1 °F 26% 30.16 in 10.0 mi North 12.7 mph - N/A   Clear
2:53 PM 61.0 °F - 24.1 °F 24% 30.15 in 10.0 mi North 10.4 mph - N/A   Clear
3:53 PM 60.1 °F - 26.1 °F 27% 30.15 in 10.0 mi North 10.4 mph - N/A   Clear
4:53 PM 52.0 °F - 28.0 °F 40% 30.16 in 10.0 mi North 4.6 mph - N/A   Clear
5:53 PM 46.0 °F - 30.9 °F 56% 30.17 in 10.0 mi Calm Calm - N/A   Clear
6:53 PM 43.0 °F - 32.0 °F 65% 30.18 in 10.0 mi Calm Calm - N/A   Clear
7:53 PM 41.0 °F - 32.0 °F 70% 30.19 in 10.0 mi Calm Calm - N/A   Clear
8:53 PM 37.0 °F - 32.0 °F 82% 30.19 in 10.0 mi Calm Calm - N/A   Clear
9:53 PM 37.0 °F - 32.0 °F 82% 30.18 in 10.0 mi Calm Calm - N/A   Clear
10:53 PM 36.0 °F - 32.0 °F 86% 30.17 in 10.0 mi Calm Calm - N/A   Clear
11:53 PM 33.1 °F - 30.9 °F 92% 30.17 in 10.0 mi Calm Calm - N/A   Clear